RH
89 93 93 95 96 97 97 98 95 93 94 95 94 88 46 17 7 6 6 5 7 17 28 31 36 32 45 27 32 60 34 32 34 36 30 24 20 20 20 19 26 28 20 22 21 26 24
93 93 95 96 97 96 97 97 95 89 84 88 77 60 22 8 4 4 4 4 12 27 33 34 36 31 40 20 48 59 37 37 36 32 30 27 25 24 20 20 24 28 27 25 24 26 26
84 93 95 97 93 86 87 89 87 78 78 54 32 18 6 5 5 4 4 8 24 34 36 36 32 49 25 38 49 46 41 43 44 37 29 38 33 26 27 25 30 31 33 19 24 26 28
73 88 95 97 97 94 88 54 34 38 53 41 13 5 4 4 9 15 20 25 30 36 33 31 32 39 27 43 50 42 39 39 43 43 42 45 37 30 29 30 28 27 26 20 24 29 30
65 84 92 91 96 97 96 92 80 53 14 5 4 4 4 8 25 28 27 26 36 36 32 33 44 35 33 40 38 45 42 35 40 43 45 43 37 32 34 29 20 23 19 17 19 27 28
62 68 74 86 95 92 94 95 81 53 48 16 6 6 6 14 32 26 25 29 38 45 40 38 29 26 29 35 41 44 42 40 35 36 38 40 35 32 29 25 22 16 18 15 20 24 30
81 85 85 91 90 94 96 89 80 76 42 12 16 26 18 18 28 24 39 37 30 29 27 35 32 24 26 36 40 39 42 38 34 32 28 33 31 27 18 19 18 20 18 19 16 15 27
90 89 94 96 95 95 94 95 81 37 22 7 23 30 23 23 36 28 45 36 60 67 27 36 37 33 33 36 31 33 40 34 31 29 30 32 28 19 27 26 27 25 25 22 17 16 23
78 88 97 96 97 97 84 86 78 50 9 5 20 30 21 26 35 51 56 71 81 69 30 34 34 33 33 34 33 37 34 35 33 30 27 28 20 30 30 27 30 24 23 19 17 14 21
74 95 95 97 97 95 96 89 71 42 7 6 25 28 20 23 44 59 56 71 78 75 28 30 33 36 33 33 38 40 38 38 32 34 31 25 27 33 30 30 21 22 13 14 20 27 26
73 90 95 97 97 96 94 92 75 45 10 7 31 31 25 18 54 45 65 64 77 62 62 30 34 33 25 34 37 42 43 37 35 29 33 22 24 32 33 21 19 18 27 25 24 25 29
78 79 94 97 96 97 96 84 66 32 9 7 34 32 30 45 51 58 50 70 68 48 87 33 32 31 22 22 27 33 37 36 38 39 33 32 26 38 26 26 28 23 29 24 25 31 52
77 76 87 90 94 94 92 82 52 30 7 12 35 36 28 34 42 56 63 60 38 44 24 32 36 32 26 24 27 26 36 38 38 55 30 24 22 25 38 30 24 34 32 42 33 54 50
75 84 87 88 93 92 87 82 37 11 3 9 35 41 36 27 46 62 55 26 38 24 26 39 36 27 21 31 25 21 30 32 38 41 40 42 38 32 36 37 41 36 31 43 39 36 25
78 82 78 90 92 90 81 79 62 8 4 12 37 55 48 30 49 61 30 30 37 27 41 39 30 23 21 29 31 21 32 40 46 44 50 48 28 26 26 33 31 24 38 32 48 39 46
86 80 80 91 88 79 69 62 36 11 6 21 50 40 36 27 45 44 21 27 39 46 44 39 26 29 21 28 26 21 26 41 47 44 41 49 47 32 36 25 25 32 30 43 35 57 47
88 78 90 93 86 72 67 58 19 5 18 32 49 28 40 37 39 27 24 37 52 42 47 48 36 33 35 37 40 30 33 47 42 39 39 38 42 31 26 22 32 32 37 32 40 44 51
89 77 89 92 82 48 28 22 10 5 22 36 37 26 28 39 28 30 29 44 52 46 40 50 48 46 45 47 39 42 48 48 37 34 38 34 41 38 26 18 20 32 39 27 45 48 41
86 86 90 88 80 68 27 15 8 5 18 42 23 23 31 41 22 25 44 47 44 41 44 45 50 46 45 48 37 46 54 48 41 31 28 27 23 27 14 28 22 22 20 24 26 33 52
84 89 84 89 87 64 26 11 7 6 18 38 24 25 25 25 26 24 36 42 47 43 44 39 42 38 39 42 42 41 45 46 39 27 41 29 32 40 38 29 26 30 28 26 33 56 48
87 80 85 92 91 79 24 11 7 11 20 36 26 30 40 22 23 27 26 32 38 41 40 37 37 34 29 26 31 25 30 24 27 47 37 31 40 31 32 28 28 30 26 33 50 42 58
93 79 80 93 91 73 20 16 9 14 22 36 25 26 28 34 32 26 40 37 34 44 35 42 34 31 26 20 20 18 27 31 30 35 32 32 40 37 46 25 23 26 31 40 45 49 51
91 79 89 94 90 79 23 21 13 12 20 38 51 41 25 45 34 23 32 36 39 39 44 34 29 28 32 30 33 32 32 32 31 37 38 42 39 38 45 25 27 29 83 59 54 57 68
88 88 93 91 90 81 30 25 17 14 18 46 56 29 22 33 25 31 43 39 39 39 42 40 33 30 45 39 36 36 40 40 42 42 39 46 42 42 53 38 60 68 56 69 68 59 67
90 91 92 89 87 88 57 33 24 19 16 25 37 40 30 34 36 44 41 44 40 43 45 40 44 44 44 44 33 25 33 38 41 41 45 45 47 47 53 42 32 77 63 62 72 69 74
91 89 89 93 82 85 62 45 32 23 20 29 44 59 48 47 41 35 40 34 35 35 44 47 46 47 47 35 32 35 27 29 30 35 35 40 48 61 47 57 53 70 51 40 56 74 64
87 88 92 93 87 96 84 45 37 31 20 26 56 44 53 58 52 38 37 39 42 41 36 43 42 49 46 37 36 36 35 41 42 39 36 44 48 56 49 53 49 64 48 40 83 80 56
88 91 94 92 89 94 80 57 43 35 24 24 78 48 65 67 64 52 50 49 53 42 35 48 57 56 44 46 39 35 42 38 44 29 40 45 60 42 51 56 64 59 40 66 66 53 47
88 89 91 91 90 92 90 62 45 30 30 25 62 52 62 70 70 74 77 81 64 58 42 57 54 53 55 51 47 44 42 39 36 48 55 65 62 69 61 49 59 44 40 53 45 50 50
Wind_Speed
4 5 7 8 9 10 12 13 14 15 15 16 17 18 17 17 16 15 14 14 13 13 13 9 7 3 1 4 4 3 1 5 4 3 3 3 5 3 5 2 3 8 6 4 6 5 7
4 6 6 7 8 9 11 13 15 15 16 17 17 18 18 17 16 15 14 14 13 12 9 6 3 1 3 4 3 3 3 4 5 4 3 4 3 4 5 4 5 5 6 9 6 9 7
5 3 4 6 7 8 10 12 14 15 16 16 17 17 17 16 15 15 13 11 10 7 6 3 1 1 2 4 3 3 2 2 5 4 2 3 3 4 3 3 1 4 8 7 11 10 5
4 2 4 6 8 9 10 11 13 14 15 15 16 16 15 15 15 14 12 10 6 4 3 2 2 1 3 2 1 2 2 2 4 4 3 2 1 1 3 2 4 5 4 6 7 7 2
3 2 4 5 8 10 11 12 13 13 13 15 15 15 14 14 13 14 11 7 2 3 3 2 2 3 4 2 1 3 3 2 1 2 2 1 3 3 3 5 8 7 9 10 4 7 2
4 3 4 5 8 10 12 13 13 13 14 14 14 14 14 13 12 12 9 4 2 3 3 1 1 3 2 2 2 2 1 1 2 2 3 4 4 6 6 7 8 9 7 8 9 6 7
4 3 4 6 8 10 12 13 13 15 15 14 12 13 13 12 8 11 7 2 3 3 9 4 4 2 1 2 1 1 1 3 3 5 4 3 6 9 9 8 10 9 11 13 13 11 5
4 4 6 7 9 11 12 14 14 13 13 13 11 13 13 12 6 11 6 4 3 2 1 2 1 0 2 3 1 2 3 3 2 5 2 5 8 3 2 3 8 10 12 14 14 9 9
5 5 7 9 10 12 12 13 14 14 12 12 11 13 12 8 3 8 10 5 2 2 3 3 2 2 2 3 3 4 4 2 3 5 5 9 6 3 3 6 9 11 14 16 18 15 12
4 5 8 9 11 12 13 14 14 14 12 11 9 11 10 4 3 2 4 4 2 0 4 2 1 2 1 1 2 2 2 4 2 5 7 9 2 6 8 10 9 16 13 15 13 9 10
4 5 7 9 11 12 14 15 15 14 12 11 7 10 7 8 2 3 2 3 0 2 3 3 3 2 2 3 2 3 1 2 5 6 3 3 4 7 10 14 10 11 5 7 12 15 17
5 4 6 9 11 12 13 14 15 14 12 10 4 7 6 4 5 3 1 2 1 2 4 3 1 2 2 1 1 1 1 2 2 6 8 16 8 5 10 9 8 13 10 15 14 11 11
7 5 5 7 10 12 14 14 14 14 12 9 3 2 7 5 2 4 2 3 2 3 2 2 1 3 4 3 0 4 3 6 5 7 4 7 13 4 4 9 9 7 10 6 7 9 12
6 5 6 6 9 11 13 15 14 13 11 9 3 1 3 7 2 1 1 3 4 2 1 1 1 5 3 5 2 2 3 1 9 8 8 5 3 2 5 4 8 10 10 10 16 15 17
7 6 6 5 8 11 13 15 16 12 10 6 1 2 0 8 2 1 3 3 3 2 2 3 3 4 4 2 3 2 4 3 6 9 4 6 4 2 6 8 8 7 10 11 13 19 17
8 6 4 5 7 9 12 14 14 12 9 3 2 2 2 7 2 2 3 1 1 2 2 2 3 1 3 1 4 2 3 4 3 7 6 3 10 1 5 9 4 3 12 8 10 19 26
8 5 4 5 7 9 12 14 13 9 7 2 2 3 1 2 1 3 3 2 3 3 2 3 2 3 2 3 3 3 4 4 3 6 4 5 5 5 16 5 10 15 11 11 8 11 15
9 5 3 6 7 8 10 13 13 7 3 2 2 3 4 3 3 2 2 2 1 2 4 2 2 3 2 1 3 3 2 4 4 4 4 4 6 10 19 19 2 8 6 8 6 10 12
8 4 2 5 7 9 10 12 11 5 2 2 2 1 3 1 4 4 4 4 4 1 4 2 2 5 2 0 3 2 2 5 4 5 4 4 4 8 9 8 11 10 14 12 12 13 17
9 4 2 5 8 10 10 12 12 4 3 3 2 2 2 2 2 2 5 4 4 4 3 4 3 1 1 2 1 1 3 2 3 5 2 2 4 8 9 14 13 16 15 13 12 9 14
10 5 2 5 8 10 11 12 12 2 4 3 1 1 3 1 2 3 1 4 5 3 3 1 3 1 0 3 4 4 1 3 0 2 3 3 6 6 10 13 14 13 15 11 9 8 7
10 7 5 4 6 9 11 13 11 1 6 2 2 3 3 3 2 4 0 2 5 4 1 2 2 3 2 3 3 2 2 3 4 7 3 3 6 6 12 14 11 15 6 6 3 7 10
10 8 6 4 6 9 9 13 12 2 7 3 2 2 1 2 2 2 2 4 4 7 3 4 3 3 3 0 3 5 6 8 9 7 5 4 5 6 12 11 14 16 5 3 5 5 5
12 8 7 5 5 8 10 12 16 10 4 5 3 3 2 3 2 2 6 4 8 2 5 4 3 1 4 7 9 9 8 8 9 10 10 5 8 7 8 14 15 4 4 1 7 10 4
14 11 8 6 6 9 11 14 14 16 9 13 5 1 2 4 6 8 9 8 8 5 5 5 3 3 5 4 4 5 5 5 7 6 9 10 8 7 7 11 14 8 4 4 5 13 4
16 13 9 7 7 8 11 11 15 14 13 17 13 9 4 6 2 8 7 5 4 3 5 4 2 3 2 3 3 4 3 2 3 5 5 7 7 5 11 12 15 5 6 9 4 6 8
18 14 11 9 9 9 10 12 14 11 17 15 10 9 6 4 3 2 3 4 2 1 2 3 1 2 3 2 4 3 3 1 4 4 4 5 6 10 10 12 2 4 13 11 5 7 17
19 17 13 10 9 10 11 13 12 12 13 12 11 11 5 4 6 6 3 5 3 1 1 4 3 4 3 3 2 0 3 0 4 6 5 7 4 8 5 7 10 11 6 6 7 13 17
19 17 13 10 10 9 10 11 12 10 8 11 8 14 15 10 5 8 11 8 8 6 1 1 3 2 4 2 2 2 4 3 7 6 2 2 3 5 4 5 5 8 9 5 10 15 15
Wind_Direction
40 41 26 17 12 4 358 354 356 357 356 351 349 342 340 336 333 329 327 327 328 328 327 325 319 329 341 227 71 360 351 3 350 333 348 315 268 275 253 256 230 246 261 263 258 248 249
30 24 16 14 9 3 359 355 353 354 353 350 347 341 341 342 340 335 331 330 334 332 335 329 329 350 271 243 6 354 351 0 6 341 359 339 348 329 299 272 252 4 295 272 254 245 241
352 22 5 2 356 1 358 353 350 352 351 349 347 346 345 344 341 338 330 327 334 341 344 349 21 1 246 59 3 10 19 27 21 7 321 23 350 287 348 263 326 288 291 267 234 237 248
313 333 3 359 353 350 348 347 350 350 349 349 349 348 347 348 345 341 335 336 336 349 6 36 72 291 66 4 73 37 357 21 37 38 78 25 350 298 272 335 242 263 252 271 94 170 180
291 328 346 354 351 346 344 346 348 350 354 352 351 347 349 349 352 343 337 342 9 38 43 32 352 284 96 67 49 358 359 321 354 24 37 337 268 276 195 236 260 204 267 251 241 189 185
289 305 330 350 346 342 343 345 345 348 348 350 349 348 349 351 360 353 352 36 47 32 357 2 257 206 137 69 22 341 358 323 288 272 245 228 228 245 226 221 244 293 249 263 255 165 217
290 307 340 342 343 343 341 341 344 347 347 350 354 354 351 350 345 357 8 316 220 162 42 31 359 344 50 359 308 18 337 270 251 242 253 180 247 237 254 246 293 288 278 273 275 282 249
293 320 334 338 343 341 341 341 344 348 349 350 355 354 350 348 355 12 37 56 49 355 89 62 4 59 25 342 262 77 330 277 256 272 230 222 246 22 8 277 253 251 265 268 274 280 258
287 314 327 337 339 338 340 341 342 345 348 350 352 355 351 355 30 40 70 64 14 344 271 100 40 8 12 328 27 37 318 323 298 278 260 280 338 114 238 253 252 249 261 277 283 298 266
274 313 325 334 337 339 339 341 341 342 348 348 351 353 356 6 86 43 51 3 12 334 225 110 142 90 213 312 177 357 6 331 246 311 317 277 38 258 254 253 263 276 297 288 273 284 273
249 291 323 330 334 339 339 340 339 341 343 345 354 357 7 34 89 54 346 339 102 253 304 98 107 12 330 312 354 104 5 248 292 301 289 291 286 265 264 270 299 286 345 293 282 276 283
233 280 317 329 335 338 339 340 339 338 338 342 353 8 20 22 56 25 356 125 214 224 246 137 24 347 288 44 56 54 217 213 297 286 246 267 284 273 271 307 288 297 285 273 261 266 258
237 268 298 323 334 336 337 338 337 337 334 336 326 6 42 46 11 336 102 225 240 227 118 98 21 357 332 330 33 18 70 51 15 332 284 306 269 222 301 286 237 251 266 282 253 212 247
238 265 297 330 334 335 337 336 338 336 332 331 311 346 20 24 355 41 210 236 246 24 99 92 302 295 281 348 113 352 218 220 51 335 299 313 280 11 20 351 320 293 275 262 278 277 284
231 256 293 325 335 335 338 337 337 336 330 328 288 298 220 334 38 145 236 242 327 21 20 341 249 250 163 176 307 288 46 32 40 16 332 331 238 89 353 331 306 306 263 322 286 279 274
224 260 283 319 332 338 338 338 336 335 331 315 299 267 260 338 111 213 253 244 173 50 325 253 266 276 271 92 303 310 164 47 35 25 340 48 293 109 18 330 265 360 339 308 278 271 267
214 251 285 316 334 342 341 338 336 331 336 219 214 255 42 346 133 220 250 104 130 77 334 331 313 280 318 323 310 289 55 76 23 14 348 342 244 264 324 310 332 319 311 319 324 276 282
202 228 278 315 336 343 342 338 337 329 351 200 250 243 349 160 214 265 194 53 352 98 37 12 360 346 294 353 283 281 324 44 48 10 341 24 303 287 296 290 285 48 37 332 289 298 301
184 206 269 322 339 342 348 340 332 318 233 224 251 315 349 219 235 182 130 91 57 106 48 37 77 10 351 344 289 265 174 139 42 5 10 12 244 306 295 106 163 357 327 318 296 284 272
165 176 299 340 346 349 349 349 339 314 204 171 252 249 101 72 20 268 166 152 121 43 81 64 109 105 198 212 256 256 208 126 315 312 157 221 255 254 273 301 310 305 310 305 304 290 304
156 152 66 0 358 354 353 355 347 300 177 168 3 137 350 152 91 94 68 130 154 149 87 116 114 99 265 239 239 244 227 272 112 139 183 303 270 284 285 292 290 288 297 323 301 322 294
151 143 106 31 9 4 2 4 354 238 161 90 211 168 121 79 76 141 261 104 173 123 191 160 220 152 208 257 278 291 254 213 273 177 261 246 276 285 278 278 280 302 289 298 315 335 298
157 136 113 69 29 19 22 22 19 68 179 132 140 103 233 149 126 223 65 123 138 137 71 82 127 187 212 305 318 307 294 277 270 260 267 249 267 283 292 314 305 283 62 294 316 291 301
144 142 129 100 65 44 39 40 39 46 185 144 169 128 174 126 170 121 135 121 130 108 138 130 131 262 60 305 284 251 255 254 248 241 231 263 253 272 283 288 282 103 94 67 332 291 224
150 155 137 113 85 64 54 45 48 50 68 113 108 93 120 116 113 123 134 126 124 119 103 141 93 29 319 286 269 257 192 206 199 211 208 224 275 287 276 285 296 157 53 12 349 315 64
161 154 141 126 99 76 65 55 53 56 71 86 68 77 79 122 99 135 134 155 148 147 141 125 122 330 280 266 241 249 245 350 228 176 209 216 239 269 289 293 285 75 2 333 6 264 12
157 150 143 127 104 80 78 65 55 60 66 83 60 69 84 103 85 154 105 134 84 83 92 139 128 208 245 244 245 255 258 35 274 258 233 241 258 258 272 287 321 41 325 303 269 326 331
153 147 140 127 111 89 78 69 62 60 64 91 60 55 74 84 78 63 71 109 109 264 206 103 197 192 215 245 291 334 269 151 269 283 302 295 303 290 285 292 294 8 338 348 342 323 325
155 149 144 130 109 95 85 80 69 62 71 86 67 65 75 76 92 87 72 50 49 33 38 96 33 54 30 292 224 317 264 261 290 287 81 247 350 320 316 345 37 351 325 47 335 324 320